Simultaneous Nadir Overpasses (SNOs) Predictions

Prediction of SNOs between AQUA and METOP-A Satellite Orbit:

Table of predicted SNOs for the next 14.0 days since TLE Epoch: 12/1/2018
Index Date (AQUA) Time (AQUA) Lat,Lon (AQUA) SZA (AQUA ) Date (METOP-A) Time (METOP-A) Lat,Lon (METOP-A) SZA (METOP-A ) Distance(km) Time Diff (sec)
1 12/01/2018 09:26:24 -74.68,-149.32 83.54 12/01/2018 09:25:11 -74.68,-149.23 83.54 2.66 73
2 12/01/2018 10:15:52 74.72, 18.20 96.52 12/01/2018 10:15:50 74.71, 18.19 96.50 1.68 2
3 12/01/2018 11:05:19 -74.78,-174.29 83.43 12/01/2018 11:06:30 -74.79,-174.26 83.42 2.21 71
4 12/04/2018 05:00:39 -74.68, -82.87 83.13 12/04/2018 04:59:27 -74.65, -82.91 83.15 3.26 72
5 12/04/2018 05:50:07 74.72, 84.65 96.92 12/04/2018 05:50:05 74.72, 84.63 96.93 0.79 2
6 12/04/2018 06:39:34 -74.77,-107.84 83.02 12/04/2018 06:40:46 -74.76,-107.93 83.03 2.93 72
7 12/07/2018 00:34:53 -74.68, -16.44 82.77 12/07/2018 00:33:41 -74.66, -16.46 82.78 1.78 72
8 12/07/2018 01:24:21 74.72, 151.09 97.28 12/07/2018 01:24:19 74.73, 151.06 97.30 1.42 2
9 12/07/2018 02:13:48 -74.78, -41.41 82.66 12/07/2018 02:15:00 -74.78, -41.48 82.66 2.22 72
10 12/09/2018 20:09:08 -74.69, 49.97 82.46 12/09/2018 20:07:56 -74.68, 49.99 82.46 1.46 72
11 12/09/2018 20:58:36 74.73,-142.50 97.59 12/09/2018 20:58:34 74.74,-142.50 97.61 1.30 2
12 12/09/2018 21:48:03 -74.79, 25.00 82.35 12/09/2018 21:49:15 -74.79, 24.96 82.35 1.39 72
13 12/12/2018 15:43:23 -74.71, 116.36 82.20 12/12/2018 15:42:11 -74.69, 116.43 82.21 2.76 72
14 12/12/2018 16:32:51 74.75, -76.10 97.85 12/12/2018 16:32:49 74.75, -76.07 97.86 0.93 2




NCC Satellite Simultaneous Nadir Overpasses (SNOs) Prediction Service
